When you browse on this site, cookies collect data to enhance your experience and personalize the content and advertising you see.
Visit our Privacy Policy to learn more. By continuing to use the site, you agree to this use of cookies and data.
  • In Switzerland
  • List of Countries
  • For 7 days
  • Water Temperature
  • Weather Map
  • Weather Widgets
  • user-avatar
    Login

    Hourly Weather Cambridge

    Today, 19 September, Thursday

    Time Temperature Precipitation Wind Pressure Humidity
    00:00 +12°C° 0 mm 1 mps 771 mmHg 79%
    01:00 +12°C° 0 mm 1 mps 771 mmHg 80%
    02:00 +11°C° 0 mm 1 mps 771 mmHg 81%
    03:00 +11°C° 0 mm 1 mps 771 mmHg 82%
    04:00 +11°C° 0 mm 1 mps 771 mmHg 83%
    05:00 +11°C° 0 mm 1 mps 771 mmHg 83%
    06:00 +10°C° 0 mm 0 mps 771 mmHg 83%
    07:00 +12°C° 0 mm 0 mps 771 mmHg 76%
    08:00 +14°C° 0 mm 0 mps 772 mmHg 69%
    09:00 +15°C° 0 mm 0 mps 772 mmHg 62%
    10:00 +18°C° 0 mm 1 mps 772 mmHg 59%
    11:00 +20°C° 0 mm 1 mps 772 mmHg 56%
    12:00 +20°C° 0 mm 2 mps 772 mmHg 53%
    13:00 +20°C° 0 mm 2 mps 772 mmHg 52%
    14:00 +20°C° 0 mm 2 mps 771 mmHg 51%
    15:00 +21°C° 0 mm 2 mps 771 mmHg 50%
    16:00 +19°C° 0 mm 2 mps 771 mmHg 55%
    17:00 +18°C° 0 mm 2 mps 771 mmHg 61%
    18:00 +17°C° 0 mm 2 mps 770 mmHg 66%
    19:00 +16°C° 0 mm 2 mps 771 mmHg 70%
    20:00 +15°C° 0 mm 2 mps 771 mmHg 74%
    21:00 +13°C° 0 mm 3 mps 771 mmHg 78%
    22:00 +13°C° 0 mm 2 mps 771 mmHg 80%
    23:00 +13°C° 0 mm 2 mps 771 mmHg 82%

    Tomorrow, 20 September, Friday

    Time Temperature Precipitation Wind Pressure Humidity
    00:00 +13°C° 0 mm 2 mps 771 mmHg 83%
    01:00 +12°C° 0 mm 2 mps 770 mmHg 85%
    02:00 +12°C° 0 mm 2 mps 770 mmHg 88%
    03:00 +12°C° 0 mm 2 mps 770 mmHg 90%
    04:00 +12°C° 0 mm 2 mps 769 mmHg 90%
    05:00 +12°C° 0 mm 2 mps 769 mmHg 91%
    06:00 +12°C° 0 mm 2 mps 769 mmHg 92%
    07:00 +13°C° 0 mm 2 mps 769 mmHg 84%
    08:00 +14°C° 0 mm 3 mps 769 mmHg 76%
    09:00 +17°C° 0 mm 4 mps 769 mmHg 68%
    10:00 +18°C° 0 mm 4 mps 768 mmHg 63%
    11:00 +19°C° 0 mm 5 mps 768 mmHg 57%
    12:00 +20°C° 0 mm 5 mps 767 mmHg 51%
    13:00 +20°C° 0 mm 5 mps 767 mmHg 51%
    14:00 +20°C° 0 mm 6 mps 766 mmHg 50%
    15:00 +20°C° 0 mm 6 mps 765 mmHg 49%
    16:00 +17°C° 0 mm 5 mps 765 mmHg 55%
    17:00 +16°C° 0 mm 5 mps 764 mmHg 61%
    18:00 +14°C° 0 mm 4 mps 764 mmHg 66%
    19:00 +14°C° 0 mm 5 mps 764 mmHg 69%
    20:00 +14°C° 0 mm 5 mps 764 mmHg 73%
    21:00 +13°C° 0 mm 5 mps 763 mmHg 76%
    22:00 +13°C° 0 mm 5 mps 763 mmHg 75%
    23:00 +13°C° 0 mm 5 mps 762 mmHg 74%

    Day after tomorrow, 21 September, Saturday

    Time Temperature Precipitation Wind Pressure Humidity
    00:00 +13°C° 0 mm 5 mps 762 mmHg 73%
    01:00 +13°C° 0 mm 5 mps 761 mmHg 73%
    02:00 +13°C° 0 mm 5 mps 761 mmHg 72%
    03:00 +13°C° 0 mm 4 mps 760 mmHg 71%
    04:00 +13°C° 0 mm 4 mps 760 mmHg 72%
    05:00 +12°C° 0 mm 5 mps 759 mmHg 72%
    06:00 +12°C° 0 mm 5 mps 759 mmHg 72%
    07:00 +14°C° 0 mm 5 mps 759 mmHg 66%
    08:00 +15°C° 0 mm 6 mps 758 mmHg 61%
    09:00 +17°C° 0 mm 6 mps 758 mmHg 55%
    10:00 +19°C° 0 mm 6 mps 757 mmHg 53%
    11:00 +20°C° 0 mm 6 mps 757 mmHg 50%
    12:00 +21°C° 0 mm 6 mps 757 mmHg 48%
    13:00 +21°C° 0 mm 6 mps 756 mmHg 49%
    14:00 +21°C° 0 mm 6 mps 755 mmHg 50%
    15:00 +21°C° 0 mm 6 mps 754 mmHg 52%
    16:00 +20°C° 0 mm 5 mps 754 mmHg 56%
    17:00 +19°C° 0 mm 5 mps 754 mmHg 60%
    18:00 +18°C° 0 mm 4 mps 753 mmHg 64%
    19:00 +18°C° 0 mm 4 mps 753 mmHg 67%
    20:00 +18°C° 0 mm 4 mps 753 mmHg 70%
    21:00 +18°C° 0 mm 4 mps 753 mmHg 73%
    22:00 +18°C° 0 mm 4 mps 752 mmHg 75%
    23:00 +18°C° 0 mm 4 mps 752 mmHg 77%

    22 September, Sunday

    Time Temperature Precipitation Wind Pressure Humidity
    00:00 +18°C° 0 mm 4 mps 751 mmHg 80%
    01:00 +18°C° 0 mm 4 mps 751 mmHg 81%
    02:00 +18°C° 0 mm 3 mps 750 mmHg 82%
    03:00 +17°C° 0 mm 3 mps 750 mmHg 83%
    04:00 +17°C° 0.1 mm 3 mps 750 mmHg 83%
    05:00 +18°C° 0.1 mm 3 mps 749 mmHg 83%
    06:00 +18°C° 0.1 mm 3 mps 749 mmHg 84%
    07:00 +19°C° 0.1 mm 3 mps 749 mmHg 82%
    08:00 +19°C° 0.1 mm 3 mps 749 mmHg 81%
    09:00 +20°C° 0.1 mm 4 mps 749 mmHg 80%
    10:00 +19°C° 1.1 mm 5 mps 749 mmHg 81%
    11:00 +17°C° 1.1 mm 5 mps 750 mmHg 83%
    12:00 +16°C° 1.1 mm 6 mps 750 mmHg 85%
    13:00 +17°C° 0.1 mm 6 mps 750 mmHg 78%
    14:00 +19°C° 0.1 mm 5 mps 750 mmHg 71%
    15:00 +20°C° 0.1 mm 5 mps 750 mmHg 64%
    16:00 +19°C° 0 mm 4 mps 750 mmHg 67%
    17:00 +18°C° 0 mm 4 mps 750 mmHg 69%
    18:00 +17°C° 0 mm 3 mps 750 mmHg 72%
    19:00 +16°C° 0 mm 3 mps 750 mmHg 76%
    20:00 +16°C° 0 mm 3 mps 751 mmHg 80%
    21:00 +14°C° 0 mm 3 mps 751 mmHg 84%
    22:00 +14°C° 0 mm 3 mps 751 mmHg 86%
    23:00 +13°C° 0 mm 4 mps 752 mmHg 89%

    23 September, Monday

    Time Temperature Precipitation Wind Pressure Humidity
    00:00 +13°C° 0 mm 4 mps 752 mmHg 92%
    01:00 +13°C° 0 mm 5 mps 752 mmHg 91%
    02:00 +12°C° 0 mm 5 mps 753 mmHg 89%
    03:00 +12°C° 0 mm 5 mps 753 mmHg 88%
    04:00 +12°C° 0 mm 5 mps 753 mmHg 89%
    05:00 +11°C° 0 mm 4 mps 753 mmHg 90%
    06:00 +11°C° 0 mm 4 mps 754 mmHg 90%
    07:00 +12°C° 0 mm 4 mps 754 mmHg 83%
    08:00 +14°C° 0 mm 4 mps 754 mmHg 76%
    09:00 +15°C° 0 mm 4 mps 754 mmHg 69%
    10:00 +15°C° 0.2 mm 5 mps 754 mmHg 74%
    11:00 +14°C° 0.2 mm 5 mps 754 mmHg 78%
    12:00 +14°C° 0.2 mm 5 mps 753 mmHg 83%
    13:00 +14°C° 0.7 mm 6 mps 752 mmHg 84%
    14:00 +15°C° 0.7 mm 6 mps 751 mmHg 86%
    15:00 +15°C° 0.7 mm 6 mps 751 mmHg 87%
    16:00 +16°C° 1.1 mm 6 mps 750 mmHg 89%
    17:00 +16°C° 1.1 mm 6 mps 749 mmHg 91%
    18:00 +16°C° 1.1 mm 6 mps 749 mmHg 93%
    19:00 +16°C° 1.7 mm 6 mps 749 mmHg 92%
    20:00 +17°C° 1.7 mm 6 mps 749 mmHg 92%
    21:00 +17°C° 1.7 mm 6 mps 749 mmHg 92%
    22:00 +16°C° 0 mm 6 mps 749 mmHg 91%
    23:00 +16°C° 0 mm 6 mps 749 mmHg 90%

    24 September, Tuesday

    Time Temperature Precipitation Wind Pressure Humidity
    00:00 +16°C° 0 mm 6 mps 749 mmHg 89%
    01:00 +15°C° 0 mm 6 mps 749 mmHg 89%
    02:00 +15°C° 0 mm 6 mps 749 mmHg 89%
    03:00 +15°C° 0 mm 6 mps 750 mmHg 89%
    04:00 +15°C° 0 mm 5 mps 750 mmHg 89%
    05:00 +15°C° 0 mm 5 mps 750 mmHg 90%
    06:00 +14°C° 0 mm 5 mps 750 mmHg 90%
    07:00 +15°C° 0 mm 5 mps 750 mmHg 87%
    08:00 +16°C° 0 mm 5 mps 750 mmHg 84%
    09:00 +17°C° 0 mm 6 mps 750 mmHg 81%
    10:00 +17°C° 0.1 mm 5 mps 750 mmHg 83%
    11:00 +17°C° 0.1 mm 5 mps 749 mmHg 84%
    12:00 +17°C° 0.1 mm 5 mps 749 mmHg 86%
    13:00 +19°C° 0.3 mm 5 mps 748 mmHg 84%
    14:00 +19°C° 0.3 mm 6 mps 748 mmHg 82%
    15:00 +20°C° 0.3 mm 7 mps 747 mmHg 80%
    16:00 +18°C° 0.3 mm 7 mps 747 mmHg 80%
    17:00 +18°C° 0.3 mm 7 mps 747 mmHg 80%
    18:00 +17°C° 0.3 mm 7 mps 747 mmHg 80%
    19:00 +17°C° 0 mm 6 mps 747 mmHg 82%
    20:00 +16°C° 0 mm 6 mps 748 mmHg 83%
    21:00 +15°C° 0 mm 6 mps 748 mmHg 85%
    22:00 +15°C° 0 mm 6 mps 748 mmHg 85%
    23:00 +14°C° 0 mm 6 mps 748 mmHg 86%
    Show more